Weather History for Key West NAF, FL

Change the Weather History Date:

Friday, March 22, 2013

  Actual Average Record
Temperature  
Mean Temperature 74 °F -  
Max Temperature 82 °F 78 °F 87 °F (1977)
Min Temperature 68 °F 68 °F 56 °F (1960)
Cooling Degree Days 10    
Growing Degree Days 24 (Base 50)    
Moisture  
Dew Point 68 °F    
Average Humidity 80    
Maximum Humidity 90    
Minimum Humidity 69    
Precipitation  
Precipitation 0.00 in - - ()
Sea Level Pressure  
Sea Level Pressure 29.94 in    
Wind  
Wind Speed 6 mph (SE)    
Max Wind Speed 13 mph    
Max Gust Speed -    
Visibility 10 miles    
Events      
Averages and records for this station are not official NWS values.
T = Trace of Precipitation, MM = Missing Value Source: NWS Daily Summary

Daily Weather History Graph

Daily Weather History Graph

Search for Another Location

Airport:

Trip Planner

Search our weather history database for the weather conditions in past years. The results will help you decide how hot, cold, wet, or windy it might be!

Date:

Astronomy

Mar. 22, 2013 Rise Set
Actual Time 7:28 AM EDT 7:38 PM EDT
Civil Twilight 7:05 AM EDT 8:01 PM EDT
Nautical Twilight 6:39 AM EDT 8:28 PM EDT
Astronomical Twilight 6:12 AM EDT 8:54 PM EDT
Moon 3:29 PM EDT (3/22) 4:01 AM EDT (3/22)
Length of Visible Light 12h 55m
Length of Day
12h 10m
Waxing Gibbous, 77% of the Moon is Illuminated
Mar 22
Waxing Gibbous
Mar 27
Full
Apr 3
Last Quarter
Apr 10
New
Apr 18
First Quarter

Hourly Weather History & Observations

Time (EDT) Temp. Heat Index Dew Point Humidity Pressure Visibility Wind Dir Wind Speed Gust Speed Precip Events Conditions
12:53 AM 70.0 °F - 60.1 °F 71% 29.95 in 10.0 mi NNE 3.5 mph - N/A   Overcast
1:53 AM 68.0 °F - 60.1 °F 76% 29.93 in 10.0 mi NE 3.5 mph - N/A   Mostly Cloudy
2:53 AM 68.0 °F - 60.1 °F 76% 29.91 in 10.0 mi NE 4.6 mph - N/A   Mostly Cloudy
3:53 AM 68.0 °F - 61.0 °F 78% 29.89 in 10.0 mi Calm Calm - N/A   Mostly Cloudy
4:53 AM 68.0 °F - 62.1 °F 81% 29.89 in 10.0 mi Calm Calm - N/A   Mostly Cloudy
5:54 AM 69.8 °F - 64.4 °F 83% 29.90 in 10.0 mi East 4.6 mph - N/A   Mostly Cloudy
6:53 AM 68.0 °F - 64.0 °F 87% 29.91 in 10.0 mi ESE 4.6 mph - N/A   Scattered Clouds
7:53 AM 69.1 °F - 66.0 °F 90% 29.92 in 10.0 mi ESE 3.5 mph - N/A   Partly Cloudy
8:53 AM 75.0 °F - 68.0 °F 79% 29.95 in 10.0 mi SE 9.2 mph - N/A   Scattered Clouds
9:53 AM 75.9 °F - 68.0 °F 76% 29.96 in 10.0 mi SE 9.2 mph - N/A   Mostly Cloudy
10:53 AM 79.0 °F - 68.0 °F 69% 29.97 in 10.0 mi SE 12.7 mph - N/A   Mostly Cloudy
11:53 AM 79.0 °F - 70.0 °F 74% 29.99 in 10.0 mi SE 10.4 mph - N/A   Mostly Cloudy
12:53 PM 79.0 °F - 71.1 °F 77% 29.98 in 10.0 mi SSE 9.2 mph - N/A   Mostly Cloudy
1:53 PM 81.0 °F 84.9 °F 71.1 °F 72% 29.96 in 10.0 mi SE 12.7 mph - N/A   Clear
2:53 PM 80.1 °F 83.8 °F 72.0 °F 76% 29.94 in 10.0 mi SE 10.4 mph - N/A   Clear
3:53 PM 81.0 °F 85.2 °F 72.0 °F 74% 29.92 in 10.0 mi South 9.2 mph - N/A   Clear
4:53 PM 81.0 °F 85.2 °F 72.0 °F 74% 29.91 in 10.0 mi SE 8.1 mph - N/A   Clear
5:53 PM 79.0 °F - 71.1 °F 77% 29.92 in 10.0 mi ESE 9.2 mph - N/A   Clear
6:53 PM 77.0 °F - 71.1 °F 82% 29.92 in 10.0 mi ESE 8.1 mph - N/A   Clear
7:53 PM 75.0 °F - 71.1 °F 87% 29.93 in 10.0 mi ESE 9.2 mph - N/A   Clear
8:53 PM 75.9 °F - 72.0 °F 87% 29.94 in 10.0 mi SE 9.2 mph - N/A   Clear
9:53 PM 75.9 °F - 72.0 °F 87% 29.96 in 10.0 mi SSE 9.2 mph - N/A   Clear
10:53 PM 75.0 °F - 72.0 °F 90% 29.98 in 10.0 mi SSE 6.9 mph - N/A   Clear
11:53 PM 75.0 °F - 72.0 °F 90% 29.98 in 10.0 mi SE 8.1 mph - N/A   Clear